Welcome to the New NWS' Forecast!
Most changes are behind the scenes, but click here for differences you might notice.

Regional Weather Roundup (RWR)

Issued by National Weather Service (NWS)

                            
992 
ASUS46 KSEW 152010
RWRWA 

WASHINGTON REGIONAL WEATHER ROUNDUP
NATIONAL WEATHER SERVICE SEATTLE WA
100 PM PDT SUN JUL 15 2018

NOTE:"FAIR" INDICATES FEW OR NO CLOUDS BELOW 12,000 FEET WITH NO 
SIGNIFICANT WEATHER AND/OR OBSTRUCTIONS TO VISIBILITY.

WAZ507-509-555>559-152100-
SEATTLE, TACOMA, EVERETT, AND VICINITY
  
CITY           SKY/WX    TMP DP  RH WIND       PRES   REMARKS
EVERETT        SUNNY     79  53  40 N8        30.04F                  
BOEING FIELD   SUNNY     84  49  29 NW12G20   30.00S                  
RENTON         SUNNY     86  56  35 NW12      29.99F                  
SEATAC AIRPORT MOSUNNY   87  53  31 N8        30.02S                  
JBLM-MCCHORD   SUNNY     85  58  39 N8        30.03R                  
PUYALLUP       FAIR      86  55  35 VRB6      30.01F                  
BREMERTON      SUNNY     85  53  33 NE10G16   30.02S                  
JBLM-FT LEWIS  SUNNY     85  57  37 N10       30.00F                  
TACOMA NARROWS SUNNY     81  50  33 NE9       30.01F                  
$$
 
WAZ001-503-506-510-514-515-152100-
NORTH INTERIOR
  
CITY           SKY/WX    TMP DP  RH WIND       PRES   REMARKS
BELLINGHAM     SUNNY     77  56  48 W9        30.02F                  
FRIDAY HARBOR  SUNNY     83  48  29 N8        30.04F                  
EASTSOUND      SUNNY     68  57  68 NW7       30.04S                  
PORT ANGELES   SUNNY     81  46  29 VRB6      30.05F                  
EDIZ HOOK      FAIR      69  51  51 E7        30.04S                  
PORT TOWNSEND  FAIR      81  52  36 VRB6G14   30.03S                  
NAS WHIDBEY    MOSUNNY   72  52  49 W8        30.07S                  
ARLINGTON      SUNNY     84  57  39 NW9       30.01F                  
BURLINGTON     SUNNY     79  57  47 W8        30.02F                  
$$
 
WAZ020-022-039-040-504-511-512-152100-
SOUTHWEST INTERIOR
  
CITY           SKY/WX    TMP DP  RH WIND       PRES   REMARKS
SHELTON        SUNNY     89  51  27 VRB7      29.97F                  
OLYMPIA        SUNNY     85  49  28 N8        30.00F                  
CHEHALIS       FAIR      90  57  33 VRB7G13   29.98F                  
KELSO          SUNNY     90  57  32 NW10      29.95F                  
VANCOUVER      SUNNY     89  57  33 VRB7      29.93F                  
SCAPPOOSE, OR  SUNNY     92  54  27 NE9       29.92F HX  90           
PORTLAND, OR   MOSUNNY   89  56  32 W9        29.93F                  
$$
 
WAZ021-516-517-152100-
WASHINGTON COAST
  
CITY           SKY/WX    TMP DP  RH WIND       PRES   REMARKS
FORKS          SUNNY     80  56  43 SW9       30.01F                  
HOQUIAM        SUNNY     80  59  48 SW14      30.00F                  
ASTORIA, OR    SUNNY     82  61  48 NW10      29.97F                  
$$
 
WAZ019-023-024-040-567>569-152100-
CASCADE MOUNTAINS AND COLUMBIA GORGE
  
CITY           SKY/WX    TMP DP  RH WIND       PRES   REMARKS
STAMPEDE PASS  NOT AVBL                                               
TROUTDALE, OR  SUNNY     89  55  31 VRB7      29.93F                  
HOOD RIVER, OR CLEAR     93  41  16 E5        29.96S                  
THE DALLES, OR SUNNY     98  39  13 N6        29.93F HX  93           
$$

WAZ026-027-041>044-520-521-152100-
EAST SLOPES
  
CITY           SKY/WX    TMP DP  RH WIND       PRES   REMARKS
OMAK           SUNNY     90  29  11 VRB5      30.03F                  
WENATCHEE      SUNNY     90  34  13 E6        30.00F                  
ELLENSBURG     NOT AVBL                                               
YAKIMA         SUNNY     94  34  12 E6        30.00F                  
SUNNYSIDE ARPT CLEAR     90  51  26 CALM      29.99F                  
YAKIMA TC        N/A     94  33  11 W10       29.99F                  
$$

WAZ028-034-035-152100-
COLUMBIA BASIN
  
CITY           SKY/WX    TMP DP  RH WIND       PRES   REMARKS
EPHRATA        SUNNY     95  25   8 CALM      30.01F                  
MOSES LAKE     SUNNY     94  29  10 SW7       30.01F                  
PASCO          SUNNY     91  46  21 NW7       29.98F                  
RICHLAND ARPT  CLEAR     95  37  13 NE6       29.98S HX  90           
HERMISTON, OR  SUNNY     96  41  15 N7        29.97F HX  92           
$$

WAZ036>038-152100-
NORTHEAST WASHINGTON
  
CITY           SKY/WX    TMP DP  RH WIND       PRES   REMARKS
SPOKANE GEIGER MOSUNNY   85  28  12 NW7       30.09S                  
SPOKANE FELTS  SUNNY     87  29  12 VRB7      30.06F                  
FAIRCHILD AFB  SUNNY     86  31  14 CALM      30.09S                  
COEURDALENE,ID SUNNY     86  32  14 VRB5      30.08F                  
DEER PARK      SUNNY     87  29  12 CALM      30.08F                  
$$

WAZ029>033-152100-
SOUTHEAST WASHINGTON
  
CITY           SKY/WX    TMP DP  RH WIND       PRES   REMARKS
PULLMAN        SUNNY     86  32  14 NW8       30.10F                  
LEWISTON, ID   SUNNY     93  38  14 VRB6      30.02F                  
WALLA WALLA    SUNNY     93  31  11 W5        29.99F                  
PENDLETON, OR  MOSUNNY   94  29  10 VRB5      30.01S                  
$$